| time (UTC) | temp C | wind direction | speed KPH | gust KPH | rain 1hr cm | rain 24hr cm | rain mn cm | humidity % | barometer mb |
| 20260504130510 | 11 | 319 | 19.3 | 0.0 | 0.00 | 0.00 | 0.00 | 61 | 997.5 |
| 20260504110542 | 11 | 240 | 24.1 | 0.0 | 0.00 | 0.00 | 0.00 | 61 | 995.4 |
| 20260504100549 | 11 | 244 | 29.0 | 0.0 | 0.00 | 0.00 | 0.00 | 53 | 994.9 |
| 20260504081521 | 11 | 221 | 25.7 | 0.0 | 0.00 | 0.00 | 0.00 | 49 | 996.1 |
| 20260504081048 | 11 | 220 | 24.1 | 0.0 | 0.00 | 0.00 | 0.00 | 49 | 996.1 |
| 20260504080532 | 11 | 213 | 24.1 | 0.0 | 0.00 | 0.00 | 0.00 | 49 | 996.1 |
| 20260504050541 | 10 | 221 | 17.7 | 0.0 | 0.00 | 0.00 | 0.00 | 46 | 999.4 |
| 20260504050020 | 10 | 223 | 16.1 | 0.0 | 0.00 | 0.00 | 0.00 | 46 | 999.8 |
| 20260504045551 | 10 | 221 | 17.7 | 0.0 | 0.00 | 0.00 | 0.00 | 45 | 999.8 |
| 20260504045037 | 10 | 221 | 17.7 | 0.0 | 0.00 | 0.00 | 0.00 | 44 | 999.8 |
| 20260504044557 | 10 | 220 | 17.7 | 0.0 | 0.00 | 0.00 | 0.00 | 43 | 999.8 |
| 20260504044501 | 11 | 221 | 17.7 | 0.0 | 0.00 | 0.00 | 0.00 | 44 | 999.8 |
| 20260504044036 | 11 | 223 | 19.3 | 0.0 | 0.00 | 0.00 | 0.00 | 43 | 999.8 |
| 20260504043531 | 11 | 227 | 19.3 | 0.0 | 0.00 | 0.00 | 0.00 | 41 | 999.8 |
| 20260504043044 | 11 | 223 | 19.3 | 0.0 | 0.00 | 0.00 | 0.00 | 42 | 1000.1 |
| 20260504042510 | 11 | 216 | 17.7 | 0.0 | 0.00 | 0.00 | 0.00 | 42 | 1000.1 |
| 20260504042044 | 10 | 217 | 14.5 | 0.0 | 0.00 | 0.00 | 0.00 | 45 | 1000.1 |
| 20260504041521 | 9 | 209 | 12.9 | 0.0 | 0.00 | 0.00 | 0.00 | 47 | 1000.5 |
| 20260504041100 | 10 | 216 | 14.5 | 0.0 | 0.00 | 0.00 | 0.00 | 46 | 1000.5 |
| 20260504041001 | 10 | 211 | 14.5 | 0.0 | 0.00 | 0.00 | 0.00 | 46 | 1000.5 |
| 20260504040523 | 10 | 215 | 14.5 | 0.0 | 0.00 | 0.00 | 0.00 | 45 | 1000.5 |
| 20260504040108 | 10 | 217 | 14.5 | 0.0 | 0.00 | 0.00 | 0.00 | 45 | 1000.7 |
| 20260504040001 | 10 | 217 | 14.5 | 0.0 | 0.00 | 0.00 | 0.00 | 45 | 1000.7 |
| 20260504035530 | 10 | 216 | 14.5 | 0.0 | 0.00 | 0.00 | 0.00 | 45 | 1000.7 |
| 20260504035007 | 9 | 218 | 14.5 | 0.0 | 0.00 | 0.00 | 0.00 | 46 | 1000.7 |
| 20260504034529 | 10 | 215 | 16.1 | 0.0 | 0.00 | 0.00 | 0.00 | 45 | 1001.1 |
| 20260504034052 | 10 | 213 | 14.5 | 0.0 | 0.00 | 0.00 | 0.00 | 45 | 1001.1 |
| 20260504033533 | 10 | 210 | 11.3 | 0.0 | 0.00 | 0.00 | 0.00 | 45 | 1001.1 |
| 20260504033100 | 10 | 221 | 9.7 | 0.0 | 0.00 | 0.00 | 0.00 | 44 | 1001.4 |
| 20260504032525 | 10 | 227 | 9.7 | 0.0 | 0.00 | 0.00 | 0.00 | 44 | 1001.4 |
| 20260504032007 | 10 | 223 | 9.7 | 0.0 | 0.00 | 0.00 | 0.00 | 43 | 1001.4 |
| 20260504031530 | 10 | 219 | 9.7 | 0.0 | 0.00 | 0.00 | 0.00 | 43 | 1001.7 |
| 20260504031012 | 10 | 225 | 9.7 | 0.0 | 0.00 | 0.00 | 0.00 | 42 | 1001.7 |
| 20260504030537 | 10 | 230 | 9.7 | 0.0 | 0.00 | 0.00 | 0.00 | 42 | 1001.7 |
| 20260504030114 | 10 | 242 | 11.3 | 0.0 | 0.00 | 0.00 | 0.00 | 42 | 1001.6 |
| 20260504030002 | 10 | 244 | 11.3 | 0.0 | 0.00 | 0.00 | 0.00 | 42 | 1001.6 |
| 20260504025542 | 11 | 228 | 12.9 | 0.0 | 0.00 | 0.00 | 0.00 | 42 | 1001.6 |
| 20260504025009 | 11 | 211 | 12.9 | 0.0 | 0.00 | 0.00 | 0.00 | 41 | 1001.6 |
| 20260504024551 | 11 | 202 | 11.3 | 0.0 | 0.00 | 0.00 | 0.00 | 40 | 1001.7 |
| 20260504024017 | 11 | 217 | 9.7 | 0.0 | 0.00 | 0.00 | 0.00 | 39 | 1001.7 |
| 20260504023539 | 11 | 243 | 8.0 | 0.0 | 0.00 | 0.00 | 0.00 | 38 | 1001.7 |
| 20260504023022 | 12 | 251 | 8.0 | 0.0 | 0.00 | 0.00 | 0.00 | 37 | 1001.6 |
| 20260504022549 | 12 | 250 | 8.0 | 0.0 | 0.00 | 0.00 | 0.00 | 37 | 1001.6 |
| 20260504022027 | 12 | 237 | 8.0 | 0.0 | 0.00 | 0.00 | 0.00 | 36 | 1001.6 |
| 20260504021512 | 12 | 242 | 9.7 | 0.0 | 0.00 | 0.00 | 0.00 | 36 | 1002.0 |
| 20260504021038 | 12 | 241 | 9.7 | 0.0 | 0.00 | 0.00 | 0.00 | 36 | 1002.0 |
| 20260504020517 | 12 | 241 | 9.7 | 0.0 | 0.00 | 0.00 | 0.00 | 36 | 1002.0 |
| 20260504020041 | 13 | 244 | 11.3 | 0.0 | 0.00 | 0.00 | 0.00 | 34 | 1002.0 |
| 20260504015600 | 13 | 248 | 11.3 | 0.0 | 0.00 | 0.00 | 0.00 | 33 | 1002.0 |
| 20260504015502 | 13 | 248 | 9.7 | 0.0 | 0.00 | 0.00 | 0.00 | 33 | 1002.0 |
| 20260504015039 | 14 | 261 | 11.3 | 0.0 | 0.00 | 0.00 | 0.00 | 32 | 1002.0 |
| 20260504014520 | 15 | 258 | 12.9 | 0.0 | 0.00 | 0.00 | 0.00 | 31 | 1002.0 |
| 20260504014043 | 15 | 262 | 14.5 | 0.0 | 0.00 | 0.00 | 0.00 | 31 | 1002.0 |
| 20260504013515 | 15 | 252 | 14.5 | 0.0 | 0.00 | 0.00 | 0.00 | 31 | 1002.0 |
| 20260504013051 | 15 | 252 | 14.5 | 0.0 | 0.00 | 0.00 | 0.00 | 30 | 1001.8 |
| 20260504012536 | 16 | 254 | 12.9 | 0.0 | 0.00 | 0.00 | 0.00 | 28 | 1001.8 |
| 20260504012054 | 16 | 257 | 14.5 | 0.0 | 0.00 | 0.00 | 0.00 | 28 | 1001.8 |
| 20260504011521 | 17 | 255 | 17.7 | 0.0 | 0.00 | 0.00 | 0.00 | 27 | 1001.8 |
| 20260504011059 | 17 | 245 | 19.3 | 0.0 | 0.00 | 0.00 | 0.00 | 26 | 1001.8 |
| 20260504011003 | 17 | 253 | 19.3 | 0.0 | 0.00 | 0.00 | 0.00 | 26 | 1001.8 |
| 20260504010533 | 17 | 245 | 20.9 | 0.0 | 0.00 | 0.00 | 0.00 | 24 | 1001.8 |
| 20260504010049 | 18 | 236 | 20.9 | 0.0 | 0.00 | 0.00 | 0.00 | 24 | 1001.8 |
| 20260504005535 | 18 | 235 | 20.9 | 0.0 | 0.00 | 0.00 | 0.00 | 24 | 1001.8 |
| 20260504005056 | 18 | 240 | 20.9 | 0.0 | 0.00 | 0.00 | 0.00 | 25 | 1001.8 |
| 20260504004536 | 18 | 243 | 22.5 | 0.0 | 0.00 | 0.00 | 0.00 | 25 | 1001.7 |
| 20260504004018 | 18 | 233 | 22.5 | 0.0 | 0.00 | 0.00 | 0.00 | 25 | 1001.7 |
| 20260504003543 | 19 | 240 | 22.5 | 0.0 | 0.00 | 0.00 | 0.00 | 26 | 1001.7 |
| 20260504003015 | 19 | 242 | 22.5 | 0.0 | 0.00 | 0.00 | 0.00 | 26 | 1001.7 |
| 20260504002549 | 19 | 249 | 20.9 | 0.0 | 0.00 | 0.00 | 0.00 | 25 | 1001.7 |
| 20260504002017 | 19 | 238 | 20.9 | 0.0 | 0.00 | 0.00 | 0.00 | 26 | 1001.7 |
| 20260504001557 | 19 | 244 | 20.9 | 0.0 | 0.00 | 0.00 | 0.00 | 27 | 1002.1 |
| 20260504001502 | 19 | 254 | 20.9 | 0.0 | 0.00 | 0.00 | 0.00 | 27 | 1002.1 |
| 20260504001030 | 19 | 270 | 20.9 | 0.0 | 0.00 | 0.00 | 0.00 | 27 | 1002.1 |
| 20260504000547 | 20 | 257 | 20.9 | 0.0 | 0.00 | 0.00 | 0.00 | 27 | 1002.1 |
| 20260504000030 | 20 | 269 | 19.3 | 0.0 | 0.00 | 0.00 | 0.00 | 27 | 1002.3 |
| 20260503235552 | 20 | 275 | 16.1 | 0.0 | 0.00 | 0.00 | 0.00 | 29 | 1002.3 |
| 20260503235037 | 20 | 275 | 19.3 | 0.0 | 0.00 | 0.00 | 0.00 | 27 | 1002.3 |
| 20260503234603 | 20 | 274 | 19.3 | 0.0 | 0.00 | 0.00 | 0.00 | 26 | 1002.5 |
| 20260503234502 | 20 | 255 | 19.3 | 0.0 | 0.00 | 0.00 | 0.00 | 27 | 1002.5 |
| 20260503234026 | 20 | 242 | 16.1 | 0.0 | 0.00 | 0.00 | 0.00 | 28 | 1002.5 |
| 20260503233508 | 20 | 245 | 16.1 | 0.0 | 0.00 | 0.00 | 0.00 | 28 | 1002.5 |
| 20260503233038 | 20 | 249 | 17.7 | 0.0 | 0.00 | 0.00 | 0.00 | 29 | 1002.8 |
| 20260503232556 | 20 | 275 | 16.1 | 0.0 | 0.00 | 0.00 | 0.00 | 27 | 1002.8 |
| 20260503232039 | 20 | 244 | 14.5 | 0.0 | 0.00 | 0.00 | 0.00 | 30 | 1002.8 |
| 20260503231517 | 20 | 281 | 16.1 | 0.0 | 0.00 | 0.00 | 0.00 | 30 | 1002.9 |
| 20260503231040 | 20 | 236 | 17.7 | 0.0 | 0.00 | 0.00 | 0.00 | 28 | 1002.9 |
| 20260503230600 | 20 | 283 | 19.3 | 0.0 | 0.00 | 0.00 | 0.00 | 28 | 1002.9 |
| 20260503230503 | 20 | 257 | 19.3 | 0.0 | 0.00 | 0.00 | 0.00 | 28 | 1002.9 |
| 20260503230042 | 20 | 246 | 20.9 | 0.0 | 0.00 | 0.00 | 0.00 | 28 | 1003.1 |
| 20260503225510 | 20 | 248 | 20.9 | 0.0 | 0.00 | 0.00 | 0.00 | 27 | 1003.1 |
| 20260503225047 | 20 | 244 | 22.5 | 0.0 | 0.00 | 0.00 | 0.00 | 29 | 1003.1 |
| 20260503224516 | 20 | 256 | 19.3 | 0.0 | 0.00 | 0.00 | 0.00 | 27 | 1003.3 |
| 20260503224034 | 20 | 254 | 17.7 | 0.0 | 0.00 | 0.00 | 0.00 | 29 | 1003.3 |
| 20260503223516 | 20 | 286 | 19.3 | 0.0 | 0.00 | 0.00 | 0.00 | 29 | 1003.3 |
| 20260503223037 | 20 | 277 | 20.9 | 0.0 | 0.00 | 0.00 | 0.00 | 28 | 1003.4 |
| 20260503222515 | 20 | 248 | 22.5 | 0.0 | 0.00 | 0.00 | 0.00 | 30 | 1003.4 |
| 20260503222055 | 20 | 255 | 24.1 | 0.0 | 0.00 | 0.00 | 0.00 | 26 | 1003.4 |
| 20260503221525 | 20 | 275 | 20.9 | 0.0 | 0.00 | 0.00 | 0.00 | 28 | 1003.3 |
| 20260503221005 | 20 | 247 | 19.3 | 0.0 | 0.00 | 0.00 | 0.00 | 30 | 1003.3 |
| 20260503220527 | 20 | 253 | 17.7 | 0.0 | 0.00 | 0.00 | 0.00 | 30 | 1003.3 |
| 20260503220013 | 20 | 251 | 19.3 | 0.0 | 0.00 | 0.00 | 0.00 | 30 | 1003.3 |
| 20260503215534 | 20 | 298 | 17.7 | 0.0 | 0.00 | 0.00 | 0.00 | 28 | 1003.3 |
| 20260503215053 | 20 | 252 | 16.1 | 0.0 | 0.00 | 0.00 | 0.00 | 29 | 1003.3 |
| 20260503214537 | 20 | 267 | 19.3 | 0.0 | 0.00 | 0.00 | 0.00 | 29 | 1003.5 |
| 20260503214056 | 20 | 292 | 17.7 | 0.0 | 0.00 | 0.00 | 0.00 | 28 | 1003.5 |
| 20260503213537 | 20 | 265 | 17.7 | 0.0 | 0.00 | 0.00 | 0.00 | 28 | 1003.5 |
| 20260503213058 | 20 | 252 | 19.3 | 0.0 | 0.00 | 0.00 | 0.00 | 28 | 1003.9 |
| 20260503212521 | 20 | 255 | 17.7 | 0.0 | 0.00 | 0.00 | 0.00 | 29 | 1003.9 |
| 20260503212100 | 20 | 325 | 17.7 | 0.0 | 0.00 | 0.00 | 0.00 | 30 | 1003.9 |
| 20260503212004 | 20 | 265 | 19.3 | 0.0 | 0.00 | 0.00 | 0.00 | 30 | 1003.9 |
| 20260503211523 | 20 | 254 | 17.7 | 0.0 | 0.00 | 0.00 | 0.00 | 31 | 1004.1 |
| 20260503211046 | 20 | 254 | 14.5 | 0.0 | 0.00 | 0.00 | 0.00 | 31 | 1004.1 |
| 20260503210525 | 20 | 270 | 14.5 | 0.0 | 0.00 | 0.00 | 0.00 | 31 | 1004.1 |
| 20260503210047 | 20 | 273 | 17.7 | 0.0 | 0.00 | 0.00 | 0.00 | 33 | 1004.3 |
| 20260503205517 | 20 | 279 | 17.7 | 0.0 | 0.00 | 0.00 | 0.00 | 31 | 1004.3 |
| 20260503205054 | 20 | 273 | 16.1 | 0.0 | 0.00 | 0.00 | 0.00 | 33 | 1004.3 |
| 20260503204519 | 20 | 289 | 14.5 | 0.0 | 0.00 | 0.00 | 0.00 | 35 | 1004.6 |
| 20260503204100 | 19 | 280 | 16.1 | 0.0 | 0.00 | 0.00 | 0.00 | 31 | 1004.6 |
| 20260503204001 | 19 | 281 | 17.7 | 0.0 | 0.00 | 0.00 | 0.00 | 33 | 1004.6 |
| 20260503203530 | 19 | 275 | 19.3 | 0.0 | 0.00 | 0.00 | 0.00 | 28 | 1004.6 |
| 20260503203006 | 20 | 292 | 19.3 | 0.0 | 0.00 | 0.00 | 0.00 | 30 | 1004.7 |
| 20260503202529 | 20 | 284 | 19.3 | 0.0 | 0.00 | 0.00 | 0.00 | 31 | 1004.7 |
| 20260503202011 | 19 | 263 | 16.1 | 0.0 | 0.00 | 0.00 | 0.00 | 36 | 1004.7 |
| 20260503201546 | 20 | 327 | 16.1 | 0.0 | 0.00 | 0.00 | 0.00 | 33 | 1004.8 |
| 20260503201016 | 19 | 300 | 17.7 | 0.0 | 0.00 | 0.00 | 0.00 | 36 | 1004.8 |
| 20260503200547 | 19 | 260 | 19.3 | 0.0 | 0.00 | 0.00 | 0.00 | 35 | 1004.8 |
| 20260503200013 | 19 | 305 | 16.1 | 0.0 | 0.00 | 0.00 | 0.00 | 37 | 1005.1 |
| 20260503195536 | 19 | 288 | 16.1 | 0.0 | 0.00 | 0.00 | 0.00 | 34 | 1005.1 |
| 20260503195019 | 19 | 319 | 17.7 | 0.0 | 0.00 | 0.00 | 0.00 | 36 | 1005.1 |
| 20260503194602 | 19 | 286 | 19.3 | 0.0 | 0.00 | 0.00 | 0.00 | 36 | 1005.2 |
| 20260503194501 | 18 | 294 | 19.3 | 0.0 | 0.00 | 0.00 | 0.00 | 36 | 1005.2 |
| 20260503194025 | 18 | 285 | 17.7 | 0.0 | 0.00 | 0.00 | 0.00 | 37 | 1005.2 |
| 20260503193556 | 18 | 325 | 16.1 | 0.0 | 0.00 | 0.00 | 0.00 | 38 | 1005.2 |
| 20260503193046 | 18 | 284 | 16.1 | 0.0 | 0.00 | 0.00 | 0.00 | 40 | 1005.5 |
| 20260503192510 | 18 | 247 | 20.9 | 0.0 | 0.00 | 0.00 | 0.00 | 38 | 1005.5 |
| 20260503192049 | 18 | 303 | 20.9 | 0.0 | 0.00 | 0.00 | 0.00 | 36 | 1005.5 |
| 20260503191513 | 18 | 298 | 19.3 | 0.0 | 0.00 | 0.00 | 0.00 | 37 | 1005.6 |
| 20260503191054 | 18 | 306 | 19.3 | 0.0 | 0.00 | 0.00 | 0.00 | 37 | 1005.6 |
| 20260503190520 | 18 | 292 | 19.3 | 0.0 | 0.00 | 0.00 | 0.00 | 35 | 1005.6 |
| 20260503190059 | 18 | 294 | 22.5 | 0.0 | 0.00 | 0.00 | 0.00 | 40 | 1005.6 |
| 20260503190001 | 18 | 328 | 24.1 | 0.0 | 0.00 | 0.00 | 0.00 | 38 | 1005.6 |
| 20260503185521 | 18 | 308 | 22.5 | 0.0 | 0.00 | 0.00 | 0.00 | 37 | 1005.6 |
| 20260503185043 | 18 | 331 | 19.3 | 0.0 | 0.00 | 0.00 | 0.00 | 41 | 1005.6 |
| 20260503184521 | 18 | 298 | 22.5 | 0.0 | 0.00 | 0.00 | 0.00 | 39 | 1005.8 |
| 20260503184047 | 18 | 342 | 20.9 | 0.0 | 0.00 | 0.00 | 0.00 | 37 | 1005.8 |
| 20260503183531 | 18 | 296 | 19.3 | 0.0 | 0.00 | 0.00 | 0.00 | 36 | 1005.8 |
| 20260503183052 | 18 | 271 | 24.1 | 0.0 | 0.00 | 0.00 | 0.00 | 40 | 1006.2 |
| 20260503182515 | 18 | 316 | 24.1 | 0.0 | 0.00 | 0.00 | 0.00 | 40 | 1006.2 |
| 20260503182053 | 18 | 321 | 20.9 | 0.0 | 0.00 | 0.00 | 0.00 | 41 | 1006.2 |
| 20260503181521 | 18 | 334 | 17.7 | 0.0 | 0.00 | 0.00 | 0.00 | 41 | 1006.3 |
| 20260503181059 | 18 | 317 | 16.1 | 0.0 | 0.00 | 0.00 | 0.00 | 42 | 1006.3 |
| 20260503181004 | 18 | 336 | 17.7 | 0.0 | 0.00 | 0.00 | 0.00 | 40 | 1006.3 |
| 20260503180523 | 17 | 323 | 22.5 | 0.0 | 0.00 | 0.00 | 0.00 | 43 | 1006.3 |
| 20260503180003 | 17 | 301 | 20.9 | 0.0 | 0.00 | 0.00 | 0.00 | 45 | 1006.5 |
| 20260503175521 | 17 | 314 | 19.3 | 0.0 | 0.00 | 0.00 | 0.00 | 40 | 1006.5 |
| 20260503175045 | 17 | 329 | 20.9 | 0.0 | 0.00 | 0.00 | 0.00 | 42 | 1006.5 |
| 20260503174532 | 17 | 334 | 19.3 | 0.0 | 0.00 | 0.00 | 0.00 | 44 | 1006.7 |
| 20260503174049 | 17 | 313 | 17.7 | 0.0 | 0.00 | 0.00 | 0.00 | 43 | 1006.7 |
| 20260503173531 | 17 | 319 | 20.9 | 0.0 | 0.00 | 0.00 | 0.00 | 46 | 1006.7 |
| 20260503173011 | 17 | 277 | 16.1 | 0.0 | 0.00 | 0.00 | 0.00 | 46 | 1006.8 |
| 20260503172546 | 17 | 288 | 16.1 | 0.0 | 0.00 | 0.00 | 0.00 | 44 | 1006.8 |
| 20260503172013 | 17 | 336 | 17.7 | 0.0 | 0.00 | 0.00 | 0.00 | 45 | 1006.8 |
| 20260503171609 | 17 | 306 | 19.3 | 0.0 | 0.00 | 0.00 | 0.00 | 47 | 1007.1 |
| 20260503171031 | 17 | 300 | 22.5 | 0.0 | 0.00 | 0.00 | 0.00 | 43 | 1007.1 |
| 20260503170555 | 17 | 320 | 22.5 | 0.0 | 0.00 | 0.00 | 0.00 | 44 | 1007.1 |
| 20260503170505 | 16 | 312 | 20.9 | 0.0 | 0.00 | 0.00 | 0.00 | 43 | 1007.1 |
| 20260503150551 | 14 | 328 | 22.5 | 0.0 | 0.00 | 0.00 | 0.00 | 53 | 1007.4 |